THORAD DELTA 1 DEB, 8436

Orbit data source: Space-Track

THORAD DELTA 1 DEB, 8436 is space debris in SSO originally from a launch on Fri, 15 Nov 1974 UTC launched from the Air Force Western Test Range (AFWTR). Debris objects in space refer to the collection of defunct objects orbiting the Earth. Examples of debris include non-operational satellites, rocket bodies, and fragments generated from explosions, collisions, or faulty payload assembly.

Loading next visibility...
Identifier
8436, 1974-089CM
Orbit
SSO
Country
Flag of USUS
Related business
Manufacturer
Unknown
Mission
Spacecraft
Bus & Motor
Unknown
Mass
Unknown
Launch date (UTC)
1974-11-15 (52 years ago)
Launch vehicle
Unknown
Launch site
Air Force Western Test Range (AFWTR)
Object type
Payload
Rocket body
Debris
Shape & HBR
Unknown shape, 0.2 m
Radar Cross Section
Medium (>0.1 m² and <1 m²)

Expand to show TLE details & history
Last TLE update: 13 hours ago

TLE from 13 hours ago
0 THORAD DELTA 1 DEB
1  8436U 74089CM  26208.27987721 -.00000043  00000-0  15579-5 0  9990
2  8436 101.7833 317.6418 0087023 342.6657  42.4830 12.35435364331632
Epoch: 2026-07-27T06:43Z
TLE epoch observation values (Epoch: 2026-07-27T06:43:01.390Z)
Latitude
25.27448°
Longitude
-93.70435°
Altitude
1,478.299 km
Speed
7.149 km/s
True Right ascension
20h 48m 04s
True Declination
25° 09' 15"
Sunlit
Object was in full shadow at epoch
Visualization orbit readout
Latitude
Unknown
Longitude
Unknown
Altitude
Unknown
Speed
Unknown
Apparent Right ascension
Unknown
Apparent Declination
Unknown
Sunlit
N/A
Visualization observer readout
Local Sidereal Time
09:33:58
Azimuth
Unknown
Elevation
Unknown
Doppler factor
Unknown
Orbital elements
Apogee altitude
1,592.343 km
Perigee altitude
1,454.817 km
Semi-major axis
7,901.717 km
Eccentricity
0.0087
Inclination
101.7833°
RAAN
317.6418°
Arg. of periapsis
342.6657°
True anomaly
43.16192°
Mean anomaly
42.483°
Eccentric anomaly
42.82191°
Mean motion
3.09002 °/min
Orbital period
116.5 mins
BSTAR
0.0000015579
Loading maneuver chart data...
Computing Atmospheric mass density...

Documentation

Showing up to 5 results
|